Regional Weather Roundup
Issued by NWS

Home | Current Version | Previous Version | Graphics & Text | Print | Product List | Glossary On
Versions: 1 2 3 4 5 6 7 8 9 10 11 12 13 14 15 16 17 18 19 20 21 22 23 24 25 26 27 28 29 30 31 32 33 34 35 36 37 38 39 40 41 42 43 44 45 46 47 48 49 50
000
ASUS43 KDMX 282208
RWRIA

WEATHER ROUNDUP FOR IOWA
NATIONAL WEATHER SERVICE DES MOINES IA
500 PM CDT THU JUL 28 2016

NOTE: "FAIR" INDICATES FEW OR NO CLOUDS BELOW 12,000 FEET WITH NO
SIGNIFICANT WEATHER AND/OR OBSTRUCTIONS TO VISIBILITY.

* - THESE STATIONS ARE NOT NWS STATIONS...THUS NOT UNDER NWS
QUALITY CONTROL.  THEY ALSO DO NOT REPORT WEATHER SUCH
AS PRECIPITATION OR FOG.

IAZ001>003-012>014-020>022-031>034-043>046-282300-
   NORTHWEST IOWA

CITY           SKY/WX    TMP DP  RH WIND       PRES   REMARKS
CARROLL *      MOSUNNY   77  64  65 N12       29.98F
CHEROKEE *     MOSUNNY   76  64  64 NE7       30.01S
DENISON *      MOSUNNY   77  59  53 N12       29.97F
LE MARS *      PTSUNNY   77  63  61 NE8G15    30.01S
SHELDON *      MOSUNNY   75  64  69 NE8       30.01R
SIOUX CITY     PTSUNNY   83  60  45 N12       29.99F HX  83
SPENCER        MOSUNNY   77  60  55 N12       30.01F
STORM LAKE *     N/A     75  63  64 N10G17    30.02S
$$

IAZ055>058-069>071-079>083-090>094-282300-
   SOUTHWEST IOWA

CITY           SKY/WX    TMP DP  RH WIND       PRES   REMARKS
ATLANTIC *     MOSUNNY   79  64  61 N9G18     29.96F HX  81
CLARINDA *       N/A     82  68  61 MISG      29.97F HX  85
COUNCIL BLFS * SUNNY     81  63  54 N12       29.97F HX  82
CRESTON *      MOSUNNY   81  68  65 NE10G17   29.97F HX  83
HARLAN  *      MOSUNNY   79  64  61 N7        30.01F HX  81
LAMONI         MOSUNNY   82  67  60 NE10      29.95S HX  84
RED OAK *      MOSUNNY   82  66  57 N12       29.96F HX  85
SHENANDOAH *   MOSUNNY   82  68  61 N10       29.96F HX  85
$$

IAZ047>049-059>061-072>074-084-282300-
   CENTRAL IOWA

CITY           SKY/WX    TMP DP  RH WIND       PRES   REMARKS
AMES           MOSUNNY   76  65  68 N13G22    29.97F
ANKENY *         N/A    N/A N/A N/A MISG        N/A
BOONE *        MOSUNNY   77  63  61 N12       29.97F
CHARITON *       N/A    N/A N/A N/A MISG        N/A
DES MOINES     PTSUNNY   80  62  54 N13       29.95F HX  81
GRINNELL*      MOSUNNY   79  64  60 NW10      29.95F HX  80
KNOXVILLE *    MOSUNNY   79  64  61 NW12      29.93F HX  81
MARSHALLTOWN   CLOUDY    77  66  68 N12       29.95S
NEWTON *       PTSUNNY   77  66  69 N10       29.95S
PELLA *        MOSUNNY   80  65  58 NW12      29.95F HX  82
PERRY *          N/A     78  66  67 N9        29.97F HX  80
$$

IAZ004>006-015-016-023>025-035-036-282300-
   NORTH CENTRAL IOWA

CITY           SKY/WX    TMP DP  RH WIND       PRES   REMARKS
ALGONA *       CLOUDY    73  64  73 N9        30.00F
ESTHERVILLE    MOSUNNY   73  64  73 N9        30.01F
FORT DODGE *   CLOUDY    72  63  73 N9        30.00F
MASON CITY     PTSUNNY   74  64  71 N13       29.99S
FOREST CITY *  CLOUDY    72  63  73 N15       29.99F
IOWA FALLS *   PTSUNNY   76  64  67 NW10      29.98F
$$

IAZ007>011-017>019-026>030-037>042-050>054-066-282300-
   NORTHEAST IOWA

CITY           SKY/WX    TMP DP  RH WIND       PRES   REMARKS
CEDAR RAPIDS   MOSUNNY   79  69  71 NW13      29.91S HX  81
CHARLES CITY * LGT RAIN  70  68  94 N9        29.98R
CLINTON *      PTSUNNY   82  71  69 W8        29.89R HX  86
DECORAH *      CLOUDY    66  64  94 N12       29.96R
DUBUQUE        PTSUNNY   79  68  69 NW12      29.91S HX  81
MONTICELLO *   PTSUNNY   79  68  69 NW12      29.91R HX  81
OELWEIN *      CLOUDY    73  66  78 N9        29.95R
WATERLOO       CLOUDY    76  65  68 NW13      29.93S
$$

IAZ064-065-067-068-078-282300-
   EAST CENTRAL IOWA

CITY           SKY/WX    TMP DP  RH WIND       PRES   REMARKS
DAVENPORT      MOSUNNY   82  68  62 W8        29.89S HX  85
IOWA CITY      MOSUNNY   82  66  58 W15G21    29.92S HX  84
MT. PLEASANT * MOSUNNY   83  66  56 NW13G20   29.92R HX  85
MUSCATINE *    SUNNY     82  66  57 NW12      29.90S HX  85
QUAD CITIES    MOSUNNY   84  67  56 W13       29.88S HX  86
$$

IAZ062-063-075>077-085>089-095>099-282300-
   SOUTHEAST IOWA

CITY           SKY/WX    TMP DP  RH WIND       PRES   REMARKS
BURLINGTON     MOSUNNY   79  69  71 NW7       29.90S HX  81
FAIRFIELD *    MOSUNNY   79  66  65 NW12G22   29.93R HX  81
KEOKUK *       SUNNY     82  68  61 NW9G18    29.90S HX  85
OSKALOOSA *      N/A     79  67  66 NW12      29.93F HX  81
OTTUMWA        MOSUNNY   80  65  59 NW14      29.92S HX  82
WASHINGTON *   MOSUNNY   79  66  65 NW10G17   29.93S HX  81
$$

ABBREVIATIONS USED IN REMARKS
   TC - TEMPERATURES IN CELSIUS
  WCI - WIND CHILL INDEX
   HX - HEAT INDEX
  VSB - VISIBILITY
$$





USA.gov is the U.S. government's official web portal to all federal, state and local government web resources and services.